User: anonymous   Login
Location: Cutler
(25.6150°N, 80.3110°W)
Time: 03:22:14
(UTC-04:00)
Language:

Cosmos 2360 Rocket - Orbit

View from above orbital plane
View from above orbital plane
View from above satellite
View from above satellite

Ground track
Ground track

The orbit data is extracted from the following two-line orbital elements,

1 25407U 98045B   17233.50638451 -.00000204 +00000-0 -79384-4 0  9995
2 25407 071.0096 264.1670 0005598 114.4916 245.6792 14.15761749985150
Epoch (UTC): 21 August 2017 12:09:11
Eccentricity: 0.0005598
inclination: 71.0096°
perigee height: 835 km
apogee height: 844 km
right ascension of ascending node: 264.1670°
argument of perigee: 114.4916°
revolutions per day: 14.15761749
mean anomaly at epoch: 245.6792°
orbit number at epoch: 98515

The dashed part of the orbit path shows where the satellite is in the earth's shadow,  

DLR